• En España
  • Lista de países
  • Para 7 días
  • Temperatura del agua
  • Mapa Satelital
  • El tiempo en el mapa
  • Informadores
  • user-avatar
    Iniciar sesión

    Tiempo cada hora Ulyanovo

    Hoy, 17 Octubre, Miércoles

    Tiempo Temperatura Precipitaciones Viento Presión Humedad
    00:00 +5°C° 0 mm 3 mps 745 mmHg 97%
    01:00 +5°C° 0 mm 3 mps 744 mmHg 97%
    02:00 +5°C° 0 mm 3 mps 743 mmHg 96%
    03:00 +6°C° 0 mm 4 mps 742 mmHg 95%
    04:00 +6°C° 0 mm 4 mps 741 mmHg 95%
    05:00 +6°C° 0.1 mm 4 mps 741 mmHg 93%
    06:00 +7°C° 0.1 mm 4 mps 740 mmHg 92%
    07:00 +7°C° 0.1 mm 5 mps 739 mmHg 91%
    08:00 +7°C° 0.2 mm 5 mps 739 mmHg 87%
    09:00 +7°C° 0.2 mm 6 mps 739 mmHg 83%
    10:00 +6°C° 0.2 mm 7 mps 739 mmHg 79%
    11:00 +5°C° 0.1 mm 7 mps 741 mmHg 77%
    12:00 +5°C° 0.1 mm 7 mps 742 mmHg 74%
    13:00 +4°C° 0.1 mm 7 mps 743 mmHg 72%
    14:00 +4°C° 0.1 mm 7 mps 744 mmHg 72%
    15:00 +4°C° 0.1 mm 6 mps 745 mmHg 72%
    16:00 +4°C° 0.1 mm 6 mps 746 mmHg 72%
    17:00 +3°C° 0 mm 6 mps 747 mmHg 74%
    18:00 +3°C° 0 mm 6 mps 748 mmHg 76%
    19:00 +3°C° 0 mm 5 mps 748 mmHg 78%
    20:00 +2°C° 0 mm 5 mps 749 mmHg 80%
    21:00 +2°C° 0 mm 5 mps 749 mmHg 82%
    22:00 +2°C° 0 mm 5 mps 749 mmHg 84%
    23:00 +3°C° 0 mm 4 mps 750 mmHg 84%

    Mañana, 18 Octubre, Jueves

    Tiempo Temperatura Precipitaciones Viento Presión Humedad
    00:00 +3°C° 0 mm 4 mps 750 mmHg 84%
    01:00 +3°C° 0 mm 4 mps 750 mmHg 84%
    02:00 +1°C° 0 mm 4 mps 750 mmHg 84%
    03:00 +1°C° 0 mm 4 mps 751 mmHg 84%
    04:00 +1°C° 0 mm 4 mps 751 mmHg 85%
    05:00 +1°C° 0 mm 4 mps 751 mmHg 85%
    06:00 +1°C° 0 mm 4 mps 751 mmHg 86%
    07:00 +1°C° 0 mm 4 mps 752 mmHg 87%
    08:00 +1°C° 0 mm 4 mps 752 mmHg 86%
    09:00 +1°C° 0 mm 4 mps 752 mmHg 85%
    10:00 +1°C° 0 mm 4 mps 752 mmHg 84%
    11:00 +3°C° 0 mm 3 mps 752 mmHg 84%
    12:00 +3°C° 0 mm 3 mps 752 mmHg 83%
    13:00 +3°C° 0 mm 3 mps 752 mmHg 82%
    14:00 +4°C° 0 mm 2 mps 752 mmHg 83%
    15:00 +4°C° 0 mm 2 mps 752 mmHg 84%
    16:00 +5°C° 0 mm 1 mps 752 mmHg 84%
    17:00 +4°C° 0 mm 1 mps 751 mmHg 86%
    18:00 +4°C° 0 mm 1 mps 751 mmHg 88%
    19:00 +4°C° 0 mm 1 mps 751 mmHg 90%
    20:00 +4°C° 0.1 mm 1 mps 750 mmHg 91%
    21:00 +3°C° 0.1 mm 2 mps 750 mmHg 91%
    22:00 +3°C° 0.1 mm 2 mps 749 mmHg 91%
    23:00 +3°C° 0.1 mm 2 mps 749 mmHg 92%

    Pasado mañana, 19 Octubre, Viernes

    Tiempo Temperatura Precipitaciones Viento Presión Humedad
    00:00 +3°C° 0.1 mm 2 mps 748 mmHg 92%
    01:00 +3°C° 0.1 mm 2 mps 748 mmHg 93%
    02:00 +3°C° 0.1 mm 2 mps 748 mmHg 94%
    03:00 +3°C° 0.1 mm 2 mps 747 mmHg 94%
    04:00 +4°C° 0.1 mm 2 mps 747 mmHg 95%
    05:00 +4°C° 0.2 mm 2 mps 747 mmHg 96%
    06:00 +4°C° 0.2 mm 2 mps 746 mmHg 97%
    07:00 +4°C° 0.2 mm 2 mps 746 mmHg 97%
    08:00 +4°C° 0.1 mm 2 mps 746 mmHg 97%
    09:00 +5°C° 0.1 mm 2 mps 746 mmHg 97%
    10:00 +5°C° 0.1 mm 2 mps 746 mmHg 96%
    11:00 +6°C° 0.1 mm 2 mps 745 mmHg 96%
    12:00 +6°C° 0.1 mm 2 mps 745 mmHg 95%
    13:00 +7°C° 0.1 mm 2 mps 745 mmHg 95%
    14:00 +7°C° 0.1 mm 2 mps 744 mmHg 95%
    15:00 +7°C° 0.1 mm 2 mps 744 mmHg 95%
    16:00 +7°C° 0.1 mm 3 mps 744 mmHg 95%
    17:00 +7°C° 0.1 mm 3 mps 744 mmHg 94%
    18:00 +8°C° 0.1 mm 3 mps 743 mmHg 94%
    19:00 +7°C° 0.1 mm 4 mps 743 mmHg 93%
    20:00 +8°C° 0.3 mm 3 mps 743 mmHg 93%
    21:00 +7°C° 0.3 mm 3 mps 743 mmHg 93%
    22:00 +7°C° 0.3 mm 3 mps 742 mmHg 93%
    23:00 +7°C° 0.2 mm 3 mps 742 mmHg 93%

    20 Octubre, Sábado

    Tiempo Temperatura Precipitaciones Viento Presión Humedad
    00:00 +7°C° 0.2 mm 3 mps 742 mmHg 94%
    01:00 +7°C° 0.2 mm 3 mps 742 mmHg 94%
    02:00 +7°C° 0 mm 3 mps 742 mmHg 94%
    03:00 +5°C° 0 mm 3 mps 742 mmHg 94%
    04:00 +5°C° 0 mm 3 mps 742 mmHg 94%
    05:00 +4°C° 0 mm 3 mps 742 mmHg 94%
    06:00 +4°C° 0 mm 3 mps 742 mmHg 94%
    07:00 +3°C° 0 mm 3 mps 743 mmHg 93%
    08:00 +3°C° 0 mm 3 mps 743 mmHg 90%
    09:00 +4°C° 0 mm 3 mps 743 mmHg 88%
    10:00 +4°C° 0 mm 3 mps 743 mmHg 85%
    11:00 +4°C° 0 mm 3 mps 743 mmHg 83%
    12:00 +4°C° 0 mm 3 mps 743 mmHg 82%
    13:00 +5°C° 0 mm 3 mps 743 mmHg 80%
    14:00 +5°C° 0 mm 3 mps 743 mmHg 81%
    15:00 +5°C° 0 mm 3 mps 743 mmHg 81%
    16:00 +5°C° 0 mm 3 mps 743 mmHg 82%
    17:00 +4°C° 0.2 mm 3 mps 743 mmHg 84%
    18:00 +4°C° 0.2 mm 3 mps 743 mmHg 86%
    19:00 +4°C° 0.2 mm 3 mps 743 mmHg 88%
    20:00 +4°C° 0.1 mm 3 mps 743 mmHg 87%
    21:00 +3°C° 0.1 mm 3 mps 743 mmHg 86%
    22:00 +3°C° 0.1 mm 3 mps 743 mmHg 85%
    23:00 +3°C° 0.1 mm 4 mps 743 mmHg 84%

    21 Octubre, Domingo

    Tiempo Temperatura Precipitaciones Viento Presión Humedad
    00:00 +3°C° 0.1 mm 4 mps 744 mmHg 84%
    01:00 +3°C° 0.1 mm 4 mps 744 mmHg 83%
    02:00 +3°C° 0.1 mm 4 mps 744 mmHg 83%
    03:00 +2°C° 0.1 mm 5 mps 744 mmHg 83%
    04:00 +2°C° 0.1 mm 5 mps 745 mmHg 84%
    05:00 +2°C° 0.1 mm 5 mps 745 mmHg 83%
    06:00 +2°C° 0.1 mm 5 mps 745 mmHg 82%
    07:00 +2°C° 0.1 mm 5 mps 746 mmHg 82%
    08:00 +2°C° 0.1 mm 5 mps 746 mmHg 80%
    09:00 +2°C° 0.1 mm 5 mps 746 mmHg 79%
    10:00 +2°C° 0.1 mm 5 mps 747 mmHg 77%
    11:00 +2°C° 0.1 mm 5 mps 747 mmHg 76%
    12:00 +3°C° 0.1 mm 4 mps 748 mmHg 75%
    13:00 +3°C° 0.1 mm 4 mps 748 mmHg 74%
    14:00 +3°C° 0.1 mm 4 mps 749 mmHg 75%
    15:00 +3°C° 0.1 mm 4 mps 749 mmHg 76%
    16:00 +1°C° 0.1 mm 4 mps 750 mmHg 77%
    17:00 +2°C° 0 mm 3 mps 750 mmHg 79%
    18:00 +1°C° 0 mm 3 mps 750 mmHg 81%
    19:00 +1°C° 0 mm 3 mps 751 mmHg 83%
    20:00 0°C° 0 mm 3 mps 751 mmHg 83%
    21:00 0°C° 0 mm 3 mps 751 mmHg 84%
    22:00 -1°C° 0 mm 2 mps 751 mmHg 84%
    23:00 -1°C° 0 mm 2 mps 751 mmHg 82%

    22 Octubre, Lunes

    Tiempo Temperatura Precipitaciones Viento Presión Humedad
    00:00 -1°C° 0 mm 3 mps 752 mmHg 80%
    01:00 -1°C° 0 mm 3 mps 752 mmHg 78%
    02:00 -1°C° 0 mm 2 mps 752 mmHg 78%
    03:00 -1°C° 0 mm 2 mps 752 mmHg 79%
    04:00 -1°C° 0 mm 2 mps 753 mmHg 79%
    05:00 -1°C° 0 mm 2 mps 753 mmHg 81%
    06:00 -2°C° 0 mm 2 mps 753 mmHg 83%
    07:00 -2°C° 0 mm 2 mps 753 mmHg 86%
    08:00 -1°C° 0 mm 2 mps 753 mmHg 82%
    09:00 -1°C° 0 mm 2 mps 753 mmHg 79%
    10:00 +1°C° 0 mm 2 mps 754 mmHg 76%
    11:00 +1°C° 0 mm 2 mps 754 mmHg 73%
    12:00 +2°C° 0 mm 2 mps 754 mmHg 70%
    13:00 +3°C° 0 mm 2 mps 754 mmHg 66%
    14:00 +3°C° 0 mm 1 mps 754 mmHg 70%
    15:00 +3°C° 0 mm 1 mps 754 mmHg 74%
    16:00 +2°C° 0 mm 1 mps 754 mmHg 77%
    17:00 +2°C° 0 mm 1 mps 754 mmHg 81%
    18:00 +1°C° 0 mm 1 mps 754 mmHg 84%
    19:00 0°C° 0 mm 1 mps 754 mmHg 87%
    20:00 0°C° 0 mm 1 mps 754 mmHg 89%
    21:00 0°C° 0 mm 1 mps 753 mmHg 90%
    22:00 -2°C° 0 mm 2 mps 753 mmHg 92%
    23:00 -2°C° 0 mm 2 mps 753 mmHg 92%
    Mostrar más